| time (UTC) | temp F | wind direction | speed knots | gust knots | rain 1hr in | rain 24hr in | rain mn in | humidity % | barometer mb |
| 20260503055047 | 61 | 153 | 5.2 | 12.2 | 0.00 | 0.00 | 0.00 | 55 | 1017.0 |
| 20260503054556 | 60 | 165 | 6.1 | 17.4 | 0.00 | 0.00 | 0.00 | 55 | 1017.1 |
| 20260503054045 | 60 | 155 | 7.8 | 17.4 | 0.00 | 0.00 | 0.00 | 55 | 1017.2 |
| 20260503053543 | 59 | 184 | 7.0 | 17.4 | 0.00 | 0.00 | 0.00 | 56 | 1017.2 |
| 20260503053042 | 59 | 191 | 4.3 | 13.9 | 0.00 | 0.00 | 0.00 | 57 | 1017.3 |
| 20260503052540 | 58 | 186 | 6.1 | 13.9 | 0.00 | 0.00 | 0.00 | 58 | 1017.3 |
| 20260503052039 | 58 | 206 | 7.0 | 12.2 | 0.00 | 0.00 | 0.00 | 58 | 1017.3 |
| 20260503051538 | 57 | 167 | 0.9 | 9.6 | 0.00 | 0.00 | 0.00 | 59 | 1017.3 |
| 20260503051036 | 57 | 165 | 1.7 | 13.9 | 0.00 | 0.00 | 0.00 | 60 | 1017.3 |
| 20260503050534 | 57 | 169 | 2.6 | 13.9 | 0.00 | 0.00 | 0.00 | 61 | 1017.4 |
| 20260503050039 | 56 | 199 | 1.7 | 9.6 | 0.00 | 0.00 | 0.00 | 61 | 1017.5 |
| 20260503045534 | 56 | 178 | 0.0 | 6.1 | 0.00 | 0.00 | 0.00 | 63 | 1017.5 |
| 20260503045032 | 55 | 150 | 0.9 | 8.7 | 0.00 | 0.00 | 0.00 | 64 | 1017.5 |
| 20260503044531 | 55 | 164 | 2.6 | 8.7 | 0.00 | 0.00 | 0.00 | 64 | 1017.5 |
| 20260503044027 | 54 | 165 | 1.7 | 7.8 | 0.00 | 0.00 | 0.00 | 66 | 1017.5 |
| 20260503043528 | 54 | 148 | 2.6 | 7.0 | 0.00 | 0.00 | 0.00 | 66 | 1017.5 |
| 20260503043024 | 53 | 160 | 0.9 | 6.1 | 0.00 | 0.00 | 0.00 | 68 | 1017.5 |
| 20260503042524 | 53 | 147 | 0.0 | 7.0 | 0.00 | 0.00 | 0.00 | 69 | 1017.5 |
| 20260503042022 | 52 | 157 | 0.9 | 7.8 | 0.00 | 0.00 | 0.00 | 70 | 1017.6 |
| 20260503041529 | 51 | 157 | 0.9 | 7.8 | 0.00 | 0.00 | 0.00 | 71 | 1017.6 |
| 20260503041018 | 51 | 158 | 0.0 | 0.9 | 0.00 | 0.00 | 0.00 | 72 | 1017.6 |
| 20260503040517 | 50 | 153 | 0.0 | 0.0 | 0.00 | 0.00 | 0.00 | 73 | 1017.6 |
| 20260503040017 | 50 | 144 | 0.0 | 0.0 | 0.00 | 0.00 | 0.00 | 74 | 1017.7 |
| 20260503035516 | 49 | 164 | 0.0 | 0.0 | 0.00 | 0.00 | 0.00 | 74 | 1017.7 |
| 20260503035016 | 49 | 149 | 0.0 | 0.0 | 0.00 | 0.00 | 0.00 | 74 | 1017.7 |
| 20260503034516 | 49 | 207 | 0.0 | 0.0 | 0.00 | 0.00 | 0.00 | 74 | 1017.7 |
| 20260503034015 | 49 | 202 | 0.0 | 0.0 | 0.00 | 0.00 | 0.00 | 74 | 1017.7 |
| 20260503033516 | 49 | 202 | 0.0 | 0.0 | 0.00 | 0.00 | 0.00 | 74 | 1017.7 |
| 20260503033014 | 49 | 203 | 0.0 | 0.0 | 0.00 | 0.00 | 0.00 | 74 | 1017.8 |
| 20260503032518 | 49 | 203 | 0.0 | 0.0 | 0.00 | 0.00 | 0.00 | 74 | 1017.7 |
| 20260503032015 | 49 | 203 | 0.0 | 0.0 | 0.00 | 0.00 | 0.00 | 74 | 1017.7 |
| 20260503031513 | 49 | 203 | 0.0 | 0.0 | 0.00 | 0.00 | 0.00 | 74 | 1017.7 |
| 20260503031013 | 49 | 203 | 0.0 | 0.0 | 0.00 | 0.00 | 0.00 | 73 | 1017.6 |
| 20260503030513 | 49 | 203 | 0.0 | 0.0 | 0.00 | 0.00 | 0.00 | 73 | 1017.7 |
| 20260503030014 | 49 | 203 | 0.0 | 0.0 | 0.00 | 0.00 | 0.00 | 73 | 1017.7 |
| 20260503025513 | 49 | 203 | 0.0 | 0.0 | 0.00 | 0.00 | 0.00 | 73 | 1017.7 |
| 20260503025012 | 49 | 203 | 0.0 | 0.0 | 0.00 | 0.00 | 0.00 | 73 | 1017.6 |
| 20260503024512 | 49 | 203 | 0.0 | 0.0 | 0.00 | 0.00 | 0.00 | 74 | 1017.7 |
| 20260503024012 | 49 | 203 | 0.0 | 0.0 | 0.00 | 0.00 | 0.00 | 74 | 1017.7 |
| 20260503023513 | 49 | 203 | 0.0 | 0.0 | 0.00 | 0.00 | 0.00 | 74 | 1017.6 |
| 20260503023010 | 49 | 203 | 0.0 | 0.0 | 0.00 | 0.00 | 0.00 | 74 | 1017.7 |
| 20260503022510 | 49 | 203 | 0.0 | 0.0 | 0.00 | 0.00 | 0.00 | 74 | 1017.7 |
| 20260503022010 | 49 | 203 | 0.0 | 0.0 | 0.00 | 0.00 | 0.00 | 74 | 1017.7 |
| 20260503021519 | 49 | 203 | 0.0 | 0.0 | 0.00 | 0.00 | 0.00 | 74 | 1017.7 |
| 20260503021010 | 49 | 203 | 0.0 | 0.0 | 0.00 | 0.00 | 0.00 | 74 | 1017.7 |
| 20260503020510 | 49 | 203 | 0.0 | 0.0 | 0.00 | 0.00 | 0.00 | 74 | 1017.8 |
| 20260503020010 | 49 | 203 | 0.0 | 0.0 | 0.00 | 0.00 | 0.00 | 73 | 1017.8 |
| 20260503015509 | 49 | 203 | 0.0 | 0.0 | 0.00 | 0.00 | 0.00 | 73 | 1017.7 |
| 20260503015009 | 50 | 203 | 0.0 | 0.0 | 0.00 | 0.00 | 0.00 | 73 | 1017.8 |
| 20260503014508 | 50 | 203 | 0.0 | 0.0 | 0.00 | 0.00 | 0.00 | 73 | 1017.8 |
| 20260503014009 | 50 | 203 | 0.0 | 0.0 | 0.00 | 0.00 | 0.00 | 73 | 1017.9 |
| 20260503013508 | 50 | 203 | 0.0 | 0.0 | 0.00 | 0.00 | 0.00 | 73 | 1017.8 |
| 20260503013008 | 50 | 203 | 0.0 | 0.0 | 0.00 | 0.00 | 0.00 | 74 | 1017.9 |
| 20260503012507 | 49 | 203 | 0.0 | 0.0 | 0.00 | 0.00 | 0.00 | 74 | 1017.8 |
| 20260503012009 | 49 | 203 | 0.0 | 0.0 | 0.00 | 0.00 | 0.00 | 73 | 1017.9 |
| 20260503011506 | 49 | 203 | 0.0 | 0.0 | 0.00 | 0.00 | 0.00 | 74 | 1017.9 |
| 20260503011006 | 49 | 203 | 0.0 | 0.0 | 0.00 | 0.00 | 0.00 | 74 | 1017.9 |
| 20260503010506 | 49 | 203 | 0.0 | 0.0 | 0.00 | 0.00 | 0.00 | 74 | 1018.0 |
| 20260503010006 | 49 | 203 | 0.0 | 0.0 | 0.00 | 0.00 | 0.00 | 74 | 1017.9 |
| 20260503005505 | 49 | 203 | 0.0 | 0.0 | 0.00 | 0.00 | 0.00 | 74 | 1017.9 |
| 20260503005005 | 49 | 203 | 0.0 | 0.0 | 0.00 | 0.00 | 0.00 | 73 | 1018.0 |
| 20260503004503 | 50 | 203 | 0.0 | 0.0 | 0.00 | 0.00 | 0.00 | 73 | 1017.9 |
| 20260503004006 | 50 | 203 | 0.0 | 0.0 | 0.00 | 0.00 | 0.00 | 72 | 1017.9 |
| 20260503003502 | 50 | 203 | 0.0 | 0.0 | 0.00 | 0.00 | 0.00 | 72 | 1017.9 |
| 20260503003002 | 50 | 203 | 0.0 | 0.0 | 0.00 | 0.00 | 0.00 | 72 | 1018.0 |
| 20260503002501 | 50 | 203 | 0.0 | 0.0 | 0.00 | 0.00 | 0.00 | 71 | 1018.0 |
| 20260503002100 | 51 | 203 | 0.0 | 0.0 | 0.00 | 0.00 | 0.00 | 70 | 1018.0 |
| 20260503001608 | 51 | 202 | 0.0 | 0.0 | 0.00 | 0.00 | 0.00 | 70 | 1018.0 |
| 20260503001058 | 51 | 202 | 0.0 | 0.0 | 0.00 | 0.00 | 0.00 | 69 | 1018.0 |
| 20260503000604 | 51 | 203 | 0.0 | 0.0 | 0.00 | 0.00 | 0.00 | 69 | 1018.0 |
| 20260503000057 | 52 | 202 | 0.0 | 0.0 | 0.00 | 0.00 | 0.00 | 69 | 1018.1 |
| 20260502235555 | 52 | 203 | 0.0 | 0.0 | 0.00 | 0.00 | 0.00 | 68 | 1018.1 |
| 20260502235054 | 52 | 203 | 0.0 | 0.0 | 0.00 | 0.00 | 0.00 | 68 | 1018.1 |
| 20260502234554 | 53 | 203 | 0.0 | 0.0 | 0.00 | 0.00 | 0.00 | 67 | 1018.1 |
| 20260502234053 | 53 | 203 | 0.0 | 0.0 | 0.00 | 0.00 | 0.00 | 67 | 1018.2 |
| 20260502233552 | 53 | 203 | 0.0 | 0.0 | 0.00 | 0.00 | 0.00 | 66 | 1018.1 |
| 20260502233052 | 54 | 203 | 0.0 | 0.0 | 0.00 | 0.00 | 0.00 | 65 | 1018.1 |
| 20260502232552 | 54 | 203 | 0.0 | 0.0 | 0.00 | 0.00 | 0.00 | 65 | 1018.0 |
| 20260502232048 | 54 | 203 | 0.0 | 0.0 | 0.00 | 0.00 | 0.00 | 64 | 1018.1 |
| 20260502231548 | 54 | 203 | 0.0 | 0.0 | 0.00 | 0.00 | 0.00 | 64 | 1018.2 |
| 20260502231047 | 55 | 203 | 0.0 | 0.0 | 0.00 | 0.00 | 0.00 | 62 | 1018.2 |
| 20260502230546 | 55 | 203 | 0.0 | 0.0 | 0.00 | 0.00 | 0.00 | 62 | 1018.1 |
| 20260502230046 | 55 | 203 | 0.0 | 0.0 | 0.00 | 0.00 | 0.00 | 62 | 1018.2 |
| 20260502225545 | 55 | 203 | 0.0 | 0.0 | 0.00 | 0.00 | 0.00 | 62 | 1018.2 |
| 20260502225045 | 55 | 203 | 0.0 | 0.0 | 0.00 | 0.00 | 0.00 | 62 | 1018.3 |
| 20260502224544 | 55 | 203 | 0.0 | 0.0 | 0.00 | 0.00 | 0.00 | 61 | 1018.4 |
| 20260502224042 | 56 | 203 | 0.0 | 0.0 | 0.00 | 0.00 | 0.00 | 61 | 1018.3 |
| 20260502223542 | 56 | 203 | 0.0 | 0.0 | 0.00 | 0.00 | 0.00 | 60 | 1018.4 |
| 20260502223042 | 56 | 203 | 0.0 | 0.0 | 0.00 | 0.00 | 0.00 | 60 | 1018.3 |
| 20260502222540 | 57 | 203 | 0.0 | 0.0 | 0.00 | 0.00 | 0.00 | 59 | 1018.3 |
| 20260502222039 | 57 | 203 | 0.0 | 0.0 | 0.00 | 0.00 | 0.00 | 59 | 1018.3 |
| 20260502221541 | 57 | 203 | 0.0 | 0.0 | 0.00 | 0.00 | 0.00 | 58 | 1018.4 |
| 20260502221040 | 57 | 203 | 0.0 | 0.0 | 0.00 | 0.00 | 0.00 | 57 | 1018.5 |
| 20260502220537 | 58 | 203 | 0.0 | 0.0 | 0.00 | 0.00 | 0.00 | 57 | 1018.5 |
| 20260502220037 | 58 | 203 | 0.0 | 0.0 | 0.00 | 0.00 | 0.00 | 56 | 1018.5 |
| 20260502215537 | 58 | 203 | 0.0 | 0.0 | 0.00 | 0.00 | 0.00 | 56 | 1018.5 |
| 20260502215037 | 59 | 203 | 0.0 | 0.0 | 0.00 | 0.00 | 0.00 | 56 | 1018.6 |
| 20260502214536 | 59 | 203 | 0.0 | 0.0 | 0.00 | 0.00 | 0.00 | 56 | 1018.6 |
| 20260502214035 | 59 | 202 | 0.0 | 0.0 | 0.00 | 0.00 | 0.00 | 56 | 1018.7 |
| 20260502213535 | 59 | 202 | 0.0 | 0.0 | 0.00 | 0.00 | 0.00 | 56 | 1018.7 |
| 20260502213035 | 59 | 202 | 0.0 | 0.0 | 0.00 | 0.00 | 0.00 | 56 | 1018.7 |
| 20260502212536 | 59 | 202 | 0.0 | 0.0 | 0.00 | 0.00 | 0.00 | 56 | 1018.7 |
| 20260502212034 | 59 | 202 | 0.0 | 0.0 | 0.00 | 0.00 | 0.00 | 55 | 1018.7 |
| 20260502211535 | 59 | 202 | 0.0 | 0.0 | 0.00 | 0.00 | 0.00 | 55 | 1018.7 |
| 20260502211037 | 60 | 202 | 0.0 | 0.0 | 0.00 | 0.00 | 0.00 | 54 | 1018.8 |
| 20260502210534 | 60 | 202 | 0.0 | 0.0 | 0.00 | 0.00 | 0.00 | 53 | 1018.7 |
| 20260502210033 | 60 | 202 | 0.0 | 0.0 | 0.00 | 0.00 | 0.00 | 53 | 1018.7 |
| 20260502205533 | 60 | 202 | 0.0 | 0.0 | 0.00 | 0.00 | 0.00 | 53 | 1018.8 |
| 20260502205032 | 61 | 202 | 0.0 | 0.0 | 0.00 | 0.00 | 0.00 | 52 | 1018.8 |
| 20260502204533 | 61 | 202 | 0.0 | 0.0 | 0.00 | 0.00 | 0.00 | 52 | 1018.8 |
| 20260502204031 | 61 | 202 | 0.0 | 0.0 | 0.00 | 0.00 | 0.00 | 52 | 1018.8 |
| 20260502203532 | 61 | 202 | 0.0 | 0.0 | 0.00 | 0.00 | 0.00 | 51 | 1018.8 |
| 20260502203031 | 62 | 202 | 0.0 | 0.0 | 0.00 | 0.00 | 0.00 | 50 | 1018.8 |
| 20260502202530 | 62 | 202 | 0.0 | 0.0 | 0.00 | 0.00 | 0.00 | 50 | 1018.8 |
| 20260502202030 | 62 | 202 | 0.0 | 0.0 | 0.00 | 0.00 | 0.00 | 50 | 1018.9 |
| 20260502201535 | 62 | 202 | 0.0 | 0.0 | 0.00 | 0.00 | 0.00 | 49 | 1018.9 |
| 20260502201030 | 62 | 172 | 0.0 | 0.0 | 0.00 | 0.00 | 0.00 | 49 | 1018.9 |
| 20260502200532 | 63 | 191 | 0.0 | 0.0 | 0.00 | 0.00 | 0.00 | 49 | 1018.9 |
| 20260502200030 | 63 | 191 | 0.0 | 0.0 | 0.00 | 0.00 | 0.00 | 49 | 1018.9 |
| 20260502195530 | 63 | 198 | 0.0 | 0.0 | 0.00 | 0.00 | 0.00 | 49 | 1018.9 |
| 20260502195029 | 63 | 198 | 0.0 | 0.0 | 0.00 | 0.00 | 0.00 | 49 | 1018.9 |
| 20260502194529 | 63 | 188 | 0.0 | 0.0 | 0.00 | 0.00 | 0.00 | 49 | 1018.9 |
| 20260502194029 | 63 | 183 | 0.0 | 0.0 | 0.00 | 0.00 | 0.00 | 49 | 1018.9 |
| 20260502193529 | 62 | 183 | 0.0 | 0.0 | 0.00 | 0.00 | 0.00 | 49 | 1018.9 |
| 20260502193028 | 62 | 183 | 0.0 | 0.0 | 0.00 | 0.00 | 0.00 | 49 | 1019.0 |
| 20260502192528 | 62 | 183 | 0.0 | 0.0 | 0.00 | 0.00 | 0.00 | 49 | 1019.0 |
| 20260502192027 | 63 | 183 | 0.0 | 0.0 | 0.00 | 0.00 | 0.00 | 49 | 1019.0 |
| 20260502191528 | 63 | 183 | 0.0 | 0.0 | 0.00 | 0.00 | 0.00 | 49 | 1019.0 |
| 20260502191030 | 63 | 183 | 0.0 | 0.0 | 0.00 | 0.00 | 0.00 | 48 | 1019.0 |
| 20260502190527 | 64 | 183 | 0.0 | 0.0 | 0.00 | 0.00 | 0.00 | 48 | 1019.0 |
| 20260502190035 | 64 | 183 | 0.0 | 0.0 | 0.00 | 0.00 | 0.00 | 46 | 1019.1 |
| 20260502185526 | 65 | 183 | 0.0 | 0.0 | 0.00 | 0.00 | 0.00 | 45 | 1019.0 |
| 20260502185026 | 65 | 183 | 0.0 | 0.0 | 0.00 | 0.00 | 0.00 | 45 | 1019.0 |
| 20260502184535 | 66 | 183 | 0.0 | 0.0 | 0.00 | 0.00 | 0.00 | 44 | 1019.0 |
| 20260502184026 | 66 | 183 | 0.0 | 0.0 | 0.00 | 0.00 | 0.00 | 43 | 1019.0 |
| 20260502183526 | 67 | 183 | 0.0 | 0.0 | 0.00 | 0.00 | 0.00 | 42 | 1019.0 |
| 20260502183126 | 67 | 183 | 0.0 | 0.0 | 0.00 | 0.00 | 0.00 | 42 | 1019.0 |
| 20260502182559 | 68 | 183 | 0.0 | 0.0 | 0.00 | 0.00 | 0.00 | 41 | 1019.0 |
| 20260502182058 | 68 | 183 | 0.0 | 0.0 | 0.00 | 0.00 | 0.00 | 40 | 1019.0 |
| 20260502181558 | 69 | 183 | 0.0 | 0.0 | 0.00 | 0.00 | 0.00 | 40 | 1019.0 |
| 20260502181058 | 69 | 183 | 0.0 | 0.0 | 0.00 | 0.00 | 0.00 | 39 | 1019.0 |
| 20260502180602 | 69 | 183 | 0.0 | 0.0 | 0.00 | 0.00 | 0.00 | 39 | 1018.9 |
| 20260502130518 | 76 | 199 | 6.1 | 11.3 | 0.00 | 0.00 | 0.00 | 32 | 1021.4 |
| 20260502123513 | 76 | 250 | 2.6 | 9.6 | 0.00 | 0.00 | 0.00 | 30 | 1021.8 |
| 20260502123019 | 77 | 257 | 0.0 | 3.5 | 0.00 | 0.00 | 0.00 | 30 | 1021.9 |
| 20260502122512 | 76 | 286 | 0.0 | 7.0 | 0.00 | 0.00 | 0.00 | 31 | 1021.9 |
| 20260502122011 | 75 | 112 | 1.7 | 7.0 | 0.00 | 0.00 | 0.00 | 31 | 1022.0 |
| 20260502121511 | 75 | 287 | 0.0 | 14.8 | 0.00 | 0.00 | 0.00 | 31 | 1022.1 |
| 20260502121010 | 75 | 309 | 5.2 | 14.8 | 0.00 | 0.00 | 0.00 | 32 | 1022.1 |
| 20260502120510 | 75 | 180 | 5.2 | 14.8 | 0.00 | 0.00 | 0.00 | 31 | 1022.2 |
| 20260502115507 | 75 | 205 | 0.0 | 10.4 | 0.00 | 0.00 | 0.00 | 32 | 1022.4 |
| 20260502115006 | 74 | 169 | 6.1 | 14.8 | 0.00 | 0.00 | 0.00 | 33 | 1022.5 |
| 20260502111056 | 75 | 294 | 0.0 | 16.5 | 0.00 | 0.00 | 0.00 | 35 | 1022.9 |
| 20260502110556 | 73 | 280 | 8.7 | 16.5 | 0.00 | 0.00 | 0.00 | 34 | 1023.0 |
| 20260502110058 | 74 | 276 | 6.1 | 14.8 | 0.00 | 0.00 | 0.00 | 35 | 1023.0 |
| 20260502105555 | 75 | 213 | 5.2 | 13.0 | 0.00 | 0.00 | 0.00 | 32 | 1023.0 |
| 20260502105053 | 74 | 337 | 0.9 | 9.6 | 0.00 | 0.00 | 0.00 | 34 | 1023.1 |
| 20260502104552 | 73 | 215 | 5.2 | 9.6 | 0.00 | 0.00 | 0.00 | 34 | 1023.2 |
| 20260502100538 | 73 | 355 | 2.6 | 14.8 | 0.00 | 0.00 | 0.00 | 36 | 1023.5 |
| 20260502071025 | 66 | 261 | 0.0 | 7.8 | 0.00 | 0.00 | 0.00 | 47 | 1024.5 |
| 20260502070524 | 65 | 149 | 1.7 | 7.8 | 0.00 | 0.00 | 0.00 | 47 | 1024.5 |
| 20260502070023 | 64 | 205 | 0.0 | 0.9 | 0.00 | 0.00 | 0.00 | 49 | 1024.5 |
| 20260502065521 | 64 | 198 | 0.0 | 0.9 | 0.00 | 0.00 | 0.00 | 49 | 1024.5 |
| 20260502065022 | 63 | 171 | 0.0 | 8.7 | 0.00 | 0.00 | 0.00 | 50 | 1024.5 |
| 20260502064518 | 63 | 209 | 0.0 | 8.7 | 0.00 | 0.00 | 0.00 | 50 | 1024.5 |
| 20260502064018 | 62 | 210 | 0.0 | 0.0 | 0.00 | 0.00 | 0.00 | 51 | 1024.6 |
| 20260502063515 | 63 | 236 | 0.0 | 0.0 | 0.00 | 0.00 | 0.00 | 51 | 1024.5 |
| 20260502063025 | 62 | 165 | 0.0 | 0.0 | 0.00 | 0.00 | 0.00 | 52 | 1024.5 |
| 20260502062512 | 61 | 200 | 0.0 | 0.0 | 0.00 | 0.00 | 0.00 | 55 | 1024.6 |
| 20260502062014 | 60 | 192 | 0.0 | 0.0 | 0.00 | 0.00 | 0.00 | 55 | 1024.6 |
| 20260502061510 | 60 | 227 | 0.0 | 0.0 | 0.00 | 0.00 | 0.00 | 55 | 1024.6 |
| 20260502061008 | 59 | 162 | 0.0 | 0.0 | 0.00 | 0.00 | 0.00 | 56 | 1024.6 |
| 20260502060508 | 59 | 205 | 0.0 | 0.0 | 0.00 | 0.00 | 0.00 | 57 | 1024.5 |
| 20260502060005 | 59 | 163 | 0.0 | 0.0 | 0.00 | 0.00 | 0.00 | 58 | 1024.5 |